[[{"header":{"parameterUnit":"m.s-1","parameterCategory":1,"la1":30.2991,"la2":30.254,"lo1":-89.0895,"lo2":-89.0444,"dy":0.0017,"dx":0.0017,"nx":28,"ny":28,"refTime":"2025-08-07T21:00:00:Z","depth":0,"parameterNumber":2,"parameterNumberName":"U-component_of_WINDS"},"data":[0,0,0,0,0,0,0,0,0,0,0,0,0,0,0,0,0,0,0,0,0,0,0,0,0,0,0,0,0,0,0,0,0,0,0,0,0,0,0,0,0,0,0,0,0,0,0,0,0,0,0,0,0,0,0,0,0,0,0.0779,0.078,0,0.0825,0.0826,0.0826,0.0834,0.0834,0.0833,0.0833,0.088,0.0882,0.0883,0,0,0,0,0,0,0,0,0,0,0,0,0,0.07,0.0702,0.0779,0.078,0.078,0.0825,0.0826,0.0826,0.0834,0.0834,0.0833,0.0833,0.0879,0.0881,0.0883,0,0,0,0,0,0,0,0,0,0,0,0,0,0.0739,0.0702,0.0779,0.079,0.0791,0.0825,0.0826,0.0826,0.0834,0.0834,0.0833,0.0832,0.0879,0.0881,0.0884,0.091,0,0,0.0891,0.0892,0,0,0,0,0,0,0,0,0.0737,0.0742,0.0788,0.0789,0.0791,0.0823,0.0815,0.0854,0.0834,0.0818,0.0833,0.0832,0.0862,0.0865,0.0875,0.0912,0.0914,0.0891,0.0893,0.0894,0.0894,0,0,0,0,0,0,0,0.0734,0.074,0.0797,0.0788,0.079,0.0793,0.0798,0.0823,0.0842,0.0819,0.082,0.0825,0.0862,0.0873,0.0876,0.0915,0.0891,0.0893,0.0895,0.0896,0.0979,0.0979,0,0,0,0,0,0,0.073,0.0738,0.0796,0.0799,0.0762,0.0795,0.08,0.0813,0.0842,0.0846,0.0826,0.0825,0.0869,0.0874,0.0878,0.0913,0.0894,0.0896,0.0897,0.0978,0.0979,0.098,0,0,0,0,0,0,0.0728,0.0735,0.0794,0.0769,0.0776,0.0797,0.0811,0.0815,0.0825,0.0847,0.0851,0.0833,0.0869,0.0875,0.0903,0.0914,0.0897,0.0899,0.0977,0.0978,0.0979,0.0981,0,0,0,0,0,0,0.0725,0.0734,0.0744,0.0769,0.0778,0.0817,0.0812,0.0816,0.0829,0.0829,0.0855,0.0858,0.0869,0.0899,0.0905,0.0917,0.0901,0.0976,0.0978,0.0979,0.098,0.0982,0.0983,0,0,0,0,0,0.0723,0.0742,0.0744,0.0751,0.079,0.0818,0.0823,0.0835,0.083,0.0841,0.0855,0.0857,0.0912,0.0902,0.0909,0.0922,0.0975,0.0977,0.0979,0.0979,0.0981,0.0983,0,0,0,0,0,0,0.0717,0.0745,0.0748,0.0776,0.0794,0.0819,0.0832,0.0837,0.0857,0.0856,0.087,0.0876,0.0903,0.0915,0.0903,0.095,0.0943,0.0947,0.0941,0.0944,0.0945,0.0942,0.0903,0,0,0,0,0,0.0719,0.0739,0.0762,0.0785,0.0794,0.0812,0.0824,0.0832,0.0852,0.0859,0.0876,0.0895,0.0917,0.0931,0.0952,0.0982,0.0988,0.0994,0.0996,0.0997,0.1,0.1018,0.1022,0.0985,0.0985,0.0985,0,0,0.0723,0.0741,0.0752,0.0784,0.0799,0.082,0.0818,0.084,0.0856,0.0863,0.089,0.0903,0.0926,0.0956,0.0969,0.0966,0.1012,0.1,0.1001,0.1002,0.1021,0.1024,0.1027,0.0986,0.0986,0.0986,0,0,0.0742,0.0757,0.0778,0.0794,0.0817,0.0829,0.0834,0.0859,0.0868,0.0896,0.0903,0.0922,0.0959,0.0975,0.0988,0.1016,0.102,0.1023,0.1032,0.105,0.1053,0.1056,0.1067,0.107,0.1025,0.1025,0.1025,0,0.0744,0.0775,0.0788,0.081,0.0824,0.0833,0.0855,0.0869,0.0899,0.0909,0.0905,0.0953,0.0969,0.1003,0.101,0.102,0.1027,0.102,0.1052,0.1054,0.1057,0.1068,0.1072,0.1025,0.1025,0.1025,0.1025,0,0.0777,0.0799,0.0814,0.0843,0.0859,0.088,0.0897,0.0912,0.0919,0.0932,0.0962,0.0981,0.1007,0.1016,0.1022,0.1052,0.1049,0.1049,0.1042,0.1061,0.1071,0.1075,0.1026,0.1026,0.1026,0.1026,0,0,0.0792,0.0829,0.0834,0.0849,0.0876,0.0894,0.0917,0.0943,0.0956,0.0977,0.0997,0.1029,0.1029,0.1044,0.1053,0.1069,0.1091,0.1066,0.1067,0.1071,0.1127,0.1127,0.1132,0.1094,0.1095,0.1095,0.1125,0,0.0814,0.0856,0.0869,0.0904,0.0925,0.0934,0.0955,0.0975,0.0988,0.1008,0.1023,0.1046,0.1044,0.1053,0.1069,0.1085,0.1103,0.1083,0.1114,0.1115,0.1108,0.1137,0.1137,0.1164,0.1129,0.113,0.113,0,0.0846,0.0868,0.0905,0.0932,0.0942,0.0959,0.0986,0.1005,0.1028,0.1037,0.1055,0.1063,0.1089,0.1081,0.1118,0.1104,0.1118,0.1128,0.1129,0.1133,0.1124,0.1142,0.1173,0.1177,0.1136,0.1136,0.1135,0,0.0854,0.0893,0.0921,0.0932,0.0964,0.0977,0.0991,0.1014,0.103,0.1052,0.1063,0.1088,0.1102,0.1123,0.1138,0.1131,0.1174,0.1167,0.1182,0.1182,0.1191,0.119,0.1225,0.1199,0.1199,0.1198,0.1198,0,0.0878,0.09,0.0925,0.0942,0.0968,0.0984,0.101,0.1024,0.1045,0.1066,0.1075,0.1095,0.1114,0.1136,0.1148,0.1177,0.1183,0.1192,0.1195,0.1191,0.119,0.12,0.1199,0.12,0.1199,0.1199,0.1199,0,0.0891,0.0908,0.094,0.0968,0.0976,0.0994,0.1019,0.1036,0.1051,0.1077,0.1084,0.1107,0.1134,0.1151,0.1185,0.1193,0.1226,0.1228,0.1218,0.1219,0.1234,0.1233,0.1277,0.1284,0.1253,0.1253,0.1253,0,0.0905,0.0923,0.0954,0.0969,0.0983,0.1007,0.1023,0.104,0.1056,0.1086,0.11,0.1128,0.1151,0.1194,0.1214,0.124,0.1244,0.1258,0.1248,0.1244,0.1245,0.1244,0.1247,0.1259,0.1259,0.1259,0.126,0,0.0929,0.0937,0.096,0.0987,0.1006,0.1028,0.105,0.1062,0.1083,0.1101,0.1129,0.1147,0.1183,0.1211,0.124,0.1255,0.1261,0.1263,0.1268,0.1264,0.1258,0.1263,0.1223,0.1262,0.1261,0.1261,0.1261,0.1261,0.0944,0.0961,0.0986,0.1012,0.103,0.1051,0.1069,0.1087,0.111,0.1141,0.115,0.1179,0.1204,0.1244,0.126,0.1284,0.1282,0.129,0.1291,0.1293,0.1294,0.1254,0.1289,0.1289,0.1289,0.1289,0.1289,0,0.0968,0.0986,0.1009,0.104,0.1061,0.1066,0.1091,0.1108,0.1134,0.1157,0.118,0.1214,0.1241,0.1264,0.1293,0.1308,0.1312,0.1315,0.1314,0.1318,0.1293,0.1286,0.1312,0.1312,0.1312,0.1312,0.1312,0.1312,0.0984,0.1014,0.1025,0.1065,0.1082,0.1111,0.1125,0.1145,0.1164,0.1201,0.1224,0.1239,0.1262,0.1293,0.1319,0.1325,0.1336,0.1339,0.1345,0.1322,0.1319,0.1317,0.1311,0.1341,0.1341,0.1368,0.1369,0.1369]},{"header":{"parameterUnit":"m.s-1","parameterCategory":1,"la1":30.2991,"la2":30.254,"lo1":-89.0895,"lo2":-89.0444,"dy":0.0017,"dx":0.0017,"nx":28,"ny":28,"refTime":"2025-08-07T21:00:00:Z","depth":0,"parameterNumber":3,"parameterNumberName":"V-component_of_WINDS"},"data":[0,0,0,0,0,0,0,0,0,0,0,0,0,0,0,0,0,0,0,0,0,0,0,0,0,0,0,0,0,0,0,0,0,0,0,0,0,0,0,0,0,0,0,0,0,0,0,0,0,0,0,0,0,0,0,0,0,0,-0.2609,-0.2609,0,-0.2621,-0.2621,-0.2621,-0.2621,-0.2621,-0.2621,-0.2621,-0.2632,-0.2633,-0.2633,0,0,0,0,0,0,0,0,0,0,0,0,0,-0.2588,-0.2589,-0.2609,-0.261,-0.261,-0.2621,-0.2621,-0.2621,-0.2621,-0.2621,-0.2621,-0.262,-0.2632,-0.2633,-0.2633,0,0,0,0,0,0,0,0,0,0,0,0,0,-0.2598,-0.2589,-0.2609,-0.2611,-0.2611,-0.2621,-0.2621,-0.2621,-0.2621,-0.2621,-0.2621,-0.262,-0.2632,-0.2633,-0.2633,-0.2642,0,0,-0.2635,-0.2636,0,0,0,0,0,0,0,0,-0.2598,-0.2599,-0.2611,-0.2611,-0.2611,-0.2619,-0.2618,-0.2628,-0.2621,-0.2617,-0.2621,-0.262,-0.2628,-0.2629,-0.2632,-0.2642,-0.2643,-0.2635,-0.2636,-0.2636,-0.2636,0,0,0,0,0,0,0,-0.2597,-0.2599,-0.2614,-0.2611,-0.2611,-0.2611,-0.2613,-0.262,-0.2624,-0.2618,-0.2618,-0.2619,-0.2628,-0.2631,-0.2632,-0.2643,-0.2635,-0.2636,-0.2636,-0.2637,-0.2663,-0.2663,0,0,0,0,0,0,-0.2596,-0.2598,-0.2614,-0.2614,-0.2604,-0.2612,-0.2613,-0.2617,-0.2624,-0.2625,-0.2619,-0.2619,-0.263,-0.2631,-0.2632,-0.2644,-0.2636,-0.2637,-0.2637,-0.2663,-0.2663,-0.2663,0,0,0,0,0,0,-0.2596,-0.2597,-0.2613,-0.2606,-0.2608,-0.2613,-0.2617,-0.2617,-0.262,-0.2625,-0.2626,-0.2621,-0.263,-0.2631,-0.264,-0.2644,-0.2637,-0.2638,-0.2662,-0.2663,-0.2663,-0.2666,0,0,0,0,0,0,-0.2595,-0.2597,-0.26,-0.2606,-0.2609,-0.262,-0.2617,-0.2618,-0.2621,-0.2621,-0.2627,-0.2628,-0.263,-0.2639,-0.2641,-0.2645,-0.2638,-0.2662,-0.2662,-0.2663,-0.2666,-0.2667,-0.2668,0,0,0,0,0,-0.2594,-0.26,-0.26,-0.2602,-0.2612,-0.262,-0.2622,-0.2624,-0.2621,-0.2625,-0.2628,-0.2628,-0.2643,-0.264,-0.2642,-0.2646,-0.2662,-0.2662,-0.2663,-0.2665,-0.2667,-0.2668,0,0,0,0,0,0,-0.2595,-0.2601,-0.2601,-0.261,-0.2614,-0.262,-0.2624,-0.2625,-0.263,-0.263,-0.2632,-0.2634,-0.2642,-0.2645,-0.2641,-0.2656,-0.2652,-0.2653,-0.2654,-0.2655,-0.2656,-0.2655,-0.2639,0,0,0,0,0,-0.2596,-0.2601,-0.2607,-0.2614,-0.2616,-0.262,-0.2623,-0.2625,-0.263,-0.2632,-0.2636,-0.2641,-0.2647,-0.2651,-0.2657,-0.2666,-0.2668,-0.267,-0.2671,-0.2672,-0.2673,-0.2679,-0.2681,-0.2665,-0.2665,-0.2665,0,0,-0.2598,-0.2602,-0.2606,-0.2614,-0.2618,-0.2624,-0.2622,-0.2628,-0.2633,-0.2633,-0.2641,-0.2644,-0.265,-0.2659,-0.2663,-0.2662,-0.2678,-0.2673,-0.2673,-0.2674,-0.268,-0.2682,-0.2683,-0.2666,-0.2666,-0.2666,0,0,-0.2605,-0.2609,-0.2616,-0.262,-0.2626,-0.2628,-0.263,-0.2636,-0.2638,-0.2647,-0.2647,-0.2653,-0.2663,-0.2668,-0.2671,-0.2682,-0.2682,-0.2683,-0.2688,-0.2694,-0.2696,-0.2697,-0.2701,-0.2703,-0.2684,-0.2684,-0.2684,0,-0.2607,-0.2617,-0.2619,-0.2626,-0.263,-0.263,-0.2637,-0.2641,-0.2649,-0.2652,-0.265,-0.2664,-0.2667,-0.2678,-0.2681,-0.2684,-0.2686,-0.2683,-0.2695,-0.2696,-0.2697,-0.2702,-0.2703,-0.2685,-0.2685,-0.2685,-0.2685,0,-0.2619,-0.2626,-0.263,-0.2638,-0.2643,-0.265,-0.2653,-0.2658,-0.2659,-0.2662,-0.2671,-0.2676,-0.2683,-0.2686,-0.2687,-0.2697,-0.2696,-0.2695,-0.2691,-0.2699,-0.2703,-0.2705,-0.2685,-0.2685,-0.2685,-0.2685,0,0,-0.2627,-0.2637,-0.2638,-0.2642,-0.265,-0.2655,-0.2662,-0.2669,-0.2673,-0.2679,-0.2686,-0.2695,-0.2694,-0.2698,-0.27,-0.2705,-0.2714,-0.2703,-0.2703,-0.2706,-0.2727,-0.2729,-0.273,-0.2714,-0.2714,-0.2715,-0.2727,0,-0.2636,-0.2649,-0.2651,-0.2663,-0.2669,-0.267,-0.2677,-0.2682,-0.2685,-0.2691,-0.2695,-0.2702,-0.27,-0.2702,-0.2708,-0.2712,-0.2719,-0.2711,-0.2721,-0.2721,-0.272,-0.2732,-0.2734,-0.2745,-0.2728,-0.2729,-0.2729,0,-0.2647,-0.2654,-0.2666,-0.2673,-0.2676,-0.2682,-0.2689,-0.2695,-0.2702,-0.2704,-0.2709,-0.271,-0.2718,-0.2715,-0.2726,-0.2721,-0.2726,-0.2728,-0.2729,-0.273,-0.2726,-0.2735,-0.2749,-0.2751,-0.2731,-0.2731,-0.2731,0,-0.2653,-0.2664,-0.2673,-0.2676,-0.2685,-0.2689,-0.2693,-0.2699,-0.2704,-0.2711,-0.2714,-0.2721,-0.2726,-0.2732,-0.2735,-0.2732,-0.2747,-0.2744,-0.275,-0.275,-0.2753,-0.2753,-0.2769,-0.2755,-0.2755,-0.2755,-0.2755,0,-0.2662,-0.267,-0.2676,-0.2681,-0.269,-0.2694,-0.2702,-0.2706,-0.2712,-0.2719,-0.272,-0.2726,-0.273,-0.2737,-0.274,-0.275,-0.2752,-0.2754,-0.2755,-0.2755,-0.2755,-0.2758,-0.2758,-0.2756,-0.2755,-0.2755,-0.2755,0,-0.267,-0.2674,-0.2684,-0.2692,-0.2694,-0.27,-0.2707,-0.2713,-0.2716,-0.2725,-0.2727,-0.2733,-0.2741,-0.2745,-0.2756,-0.2758,-0.277,-0.277,-0.2768,-0.2768,-0.2775,-0.2774,-0.2793,-0.2796,-0.278,-0.278,-0.278,0,-0.2676,-0.2682,-0.2691,-0.2695,-0.2699,-0.2707,-0.2712,-0.2716,-0.2721,-0.2729,-0.2734,-0.2743,-0.275,-0.2764,-0.2769,-0.2778,-0.2778,-0.2785,-0.278,-0.2779,-0.278,-0.278,-0.2781,-0.2786,-0.2786,-0.2786,-0.2786,0,-0.2687,-0.2689,-0.2696,-0.2704,-0.271,-0.2717,-0.2724,-0.2727,-0.2732,-0.2738,-0.2747,-0.2753,-0.2764,-0.2773,-0.2782,-0.2787,-0.2788,-0.2787,-0.279,-0.2789,-0.2788,-0.279,-0.2771,-0.2787,-0.2787,-0.2787,-0.2787,-0.2787,-0.2694,-0.27,-0.2707,-0.2716,-0.2721,-0.2728,-0.2734,-0.2738,-0.2746,-0.2756,-0.2757,-0.2767,-0.2775,-0.2787,-0.2792,-0.28,-0.2799,-0.2801,-0.2802,-0.2803,-0.2804,-0.2787,-0.2801,-0.2801,-0.2801,-0.2801,-0.2801,0,-0.2706,-0.2711,-0.2719,-0.2728,-0.2735,-0.2735,-0.2743,-0.2748,-0.2757,-0.2764,-0.2771,-0.2782,-0.2791,-0.2798,-0.2807,-0.2813,-0.2813,-0.2815,-0.2815,-0.2816,-0.2804,-0.2802,-0.2814,-0.2814,-0.2814,-0.2814,-0.2814,-0.2814,-0.2713,-0.2723,-0.2726,-0.274,-0.2745,-0.2754,-0.2759,-0.2765,-0.2771,-0.2783,-0.2791,-0.2795,-0.2802,-0.2812,-0.2821,-0.2822,-0.2826,-0.2828,-0.283,-0.2818,-0.2817,-0.2816,-0.2814,-0.2829,-0.2829,-0.2841,-0.2842,-0.2842]}]]